User: anonymous   Login
Location: Boiro
(42.6475°N, 8.8834°W)
Time: 06:33:17
(UTC+01:00)
Language:

CUTE-I - Orbit

View from above orbital plane
View from above orbital plane
View from above satellite
View from above satellite

Ground track
Ground track

The orbit data is extracted from the following two-line orbital elements,

1 27844U 03031E   22027.74069382  .00000122  00000-0  74564-4 0  9999
2 27844  98.6805  37.5443 0010470 144.7782 215.4089 14.22373606963904
Epoch (UTC): 27 January 2022 17:46:35
Eccentricity: 0.0010470
inclination: 98.6805°
perigee height: 810 km
apogee height: 825 km
right ascension of ascending node: 37.5443°
argument of perigee: 144.7782°
revolutions per day: 14.22373606
mean anomaly at epoch: 215.4089°
orbit number at epoch: 96390

The dashed part of the orbit path shows where the satellite is in the earth's shadow,  

DLR